Charlevoix, MI

4:35 AM EDT on March 29, 2017 (GMT -0400)
Charlevoix Municipal

Weather History for KCVX - July, 2013

Change the Weather History Date:

Tuesday, July 9, 2013

  Actual Average Record
Temperature  
Mean Temperature 72 °F -  
Max Temperature 78 °F 73 °F 84 °F (2001)
Min Temperature 66 °F 60 °F 51 °F (2003)
Cooling Degree Days 7    
Growing Degree Days 22 (Base 50)    
Moisture  
Dew Point 68 °F    
Average Humidity 92    
Maximum Humidity 100    
Minimum Humidity 70    
Precipitation  
Precipitation 0.00 in - - ()
Sea Level Pressure  
Sea Level Pressure 29.95 in    
Wind  
Wind Speed 4 mph (ENE)    
Max Wind Speed 8 mph    
Max Gust Speed -    
Visibility 7 miles    
Events Rain    
Averages and records for this station are not official NWS values.
T = Trace of Precipitation, MM = Missing Value Source: NWS Daily Summary

Daily Weather History Graph

Daily Weather History Graph

Search for Another Location

Airport or City:

Trip Planner

Search our weather history database for the weather conditions in past years. The results will help you decide how hot, cold, wet, or windy it might be!

Date:

Astronomy

Jul. 09, 2013 Rise Set
Actual Time 6:02 AM EDT 9:29 PM EDT
Civil Twilight 5:25 AM EDT 10:06 PM EDT
Nautical Twilight 4:37 AM EDT 10:54 PM EDT
Astronomical Twilight 3:34 AM EDT 11:56 PM EDT
Moon 7:32 AM EDT (7/9) 9:58 PM EDT (7/9)
Length of Visible Light 16h 40m
Length of Day
15h 26m
New Moon, 2% of the Moon is Illuminated
Jul 9
New Moon
Jul 15
First Quarter
Jul 22
Full
Jul 29
Last Quarter
Aug 6
New

Hourly Weather History & Observations

Time (EDT) Temp. Dew Point Humidity Pressure Visibility Wind Dir Wind Speed Gust Speed Precip Events Conditions
12:14 AM 68.9 °F 68.2 °F 98% 30.01 in 10.0 mi East 5.8 mph - N/A   Overcast
12:34 AM 68.2 °F 67.8 °F 99% 30.01 in 7.0 mi ENE 4.6 mph - N/A   Overcast
12:54 AM 68.0 °F 67.6 °F 99% 30.01 in 7.0 mi East 4.6 mph - N/A   Overcast
1:14 AM 67.8 °F 67.6 °F 99% 30.01 in 5.0 mi ENE 3.5 mph - N/A   Overcast
1:34 AM 67.8 °F 67.6 °F 99% 30.02 in 5.0 mi Calm Calm - N/A   Overcast
1:54 AM 67.8 °F 67.5 °F 99% 30.02 in 5.0 mi NE 3.5 mph - N/A   Overcast
2:15 AM 67.6 °F 67.5 °F 99% 30.02 in 5.0 mi ENE 3.5 mph - N/A   Overcast
2:34 AM 67.6 °F 67.5 °F 99% 30.01 in 5.0 mi ENE 3.5 mph - N/A   Overcast
2:54 AM 68.0 °F 67.6 °F 99% 30.02 in 5.0 mi NNW 3.5 mph - N/A   Overcast
3:15 AM 67.1 °F 67.1 °F 100% 30.02 in 5.0 mi North 3.5 mph - N/A   Overcast
3:34 AM 67.3 °F 67.1 °F 99% 30.02 in 7.0 mi Calm Calm - N/A   Overcast
3:54 AM 67.1 °F 66.7 °F 99% 30.02 in 5.0 mi North 3.5 mph - N/A   Overcast
4:14 AM 66.7 °F 66.7 °F 100% 30.01 in 5.0 mi Calm Calm - N/A   Overcast
4:34 AM 66.7 °F 66.7 °F 100% 30.00 in 5.0 mi Calm Calm - N/A   Overcast
4:54 AM 66.7 °F 66.7 °F 100% 30.01 in 5.0 mi Calm Calm - N/A   Overcast
5:14 AM 67.1 °F 66.9 °F 99% 30.01 in 7.0 mi East 6.9 mph - N/A   Overcast
5:34 AM 67.1 °F 67.1 °F 100% 30.01 in 5.0 mi East 4.6 mph - N/A   Overcast
5:54 AM 66.6 °F 66.6 °F 100% 30.02 in 5.0 mi NE 4.6 mph - N/A   Overcast
6:14 AM 66.6 °F 66.6 °F 100% 30.02 in 3.0 mi ENE 3.5 mph - N/A   Overcast
6:34 AM 66.6 °F 66.6 °F 100% 30.02 in 2.0 mi ENE 3.5 mph - N/A   Overcast
6:54 AM 66.9 °F 66.9 °F 100% 30.02 in 5.0 mi ENE 4.6 mph - N/A   Overcast
7:14 AM 67.1 °F 67.1 °F 100% 30.02 in 2.0 mi ENE 4.6 mph - N/A   Overcast
7:35 AM 67.1 °F 67.1 °F 100% 30.02 in 4.0 mi Calm Calm - N/A   Overcast
7:54 AM 67.5 °F 67.5 °F 100% 30.02 in 5.0 mi ESE 3.5 mph - N/A   Overcast
8:14 AM 67.6 °F 67.5 °F 99% 30.02 in 7.0 mi SE 3.5 mph - N/A   Overcast
8:35 AM 68.4 °F 68.0 °F 99% 30.02 in 10.0 mi Calm Calm - N/A   Overcast
8:54 AM 69.3 °F 68.4 °F 97% 30.02 in 10.0 mi Calm Calm - N/A   Overcast
9:14 AM 69.8 °F 68.0 °F 94% 30.02 in 10.0 mi East 3.5 mph - N/A   Overcast
9:35 AM 70.7 °F 68.7 °F 93% 30.01 in 10.0 mi East 3.5 mph - N/A   Overcast
9:54 AM 71.2 °F 68.0 °F 89% 30.01 in 10.0 mi East 4.6 mph - N/A   Overcast
10:14 AM 71.8 °F 68.5 °F 89% 30.01 in 10.0 mi East 4.6 mph - N/A   Overcast
10:34 AM 73.4 °F 68.5 °F 85% 30.00 in 10.0 mi ESE 4.6 mph - N/A   Overcast
10:54 AM 74.1 °F 68.9 °F 84% 30.00 in 10.0 mi Calm Calm - N/A   Overcast
11:14 AM 73.6 °F 68.5 °F 84% 30.00 in 10.0 mi NW 3.5 mph - N/A   Overcast
11:34 AM 74.5 °F 68.5 °F 82% 29.99 in 10.0 mi Calm Calm - N/A   Overcast
11:54 AM 74.3 °F 68.0 °F 81% 29.99 in 10.0 mi SSE 5.8 mph - N/A   Overcast
12:14 PM 73.9 °F 68.7 °F 84% 29.99 in 10.0 mi West 6.9 mph - N/A   Overcast
12:34 PM 73.8 °F 68.7 °F 84% 29.99 in 7.0 mi West 6.9 mph - N/A   Overcast
12:54 PM 74.3 °F 69.4 °F 85% 29.99 in 10.0 mi West 5.8 mph - N/A   Overcast
1:15 PM 75.0 °F 69.4 °F 83% 29.98 in 10.0 mi West 6.9 mph - N/A   Overcast
1:34 PM 75.9 °F 68.2 °F 77% 29.98 in 10.0 mi South 6.9 mph - N/A   Overcast
1:54 PM 77.4 °F 68.2 °F 73% 29.97 in 10.0 mi SSE 6.9 mph - N/A   Mostly Cloudy
2:15 PM 77.5 °F 67.8 °F 72% 29.97 in 10.0 mi South 4.6 mph - N/A   Mostly Cloudy
2:34 PM 78.4 °F 67.8 °F 70% 29.96 in 10.0 mi South 6.9 mph - N/A   Mostly Cloudy
2:54 PM 77.5 °F 67.6 °F 71% 29.95 in 10.0 mi SSW 5.8 mph - N/A   Scattered Clouds
3:15 PM 78.1 °F 67.6 °F 70% 29.94 in 10.0 mi SSE 3.5 mph - N/A   Scattered Clouds
3:34 PM 77.9 °F 68.5 °F 73% 29.93 in 10.0 mi NE 4.6 mph - N/A   Clear
3:54 PM 77.7 °F 68.7 °F 74% 29.93 in 10.0 mi ENE 3.5 mph - N/A   Clear
4:14 PM 75.2 °F 68.5 °F 80% 29.92 in 10.0 mi North 5.8 mph - N/A   Clear
4:34 PM 73.8 °F 68.4 °F 83% 29.92 in 10.0 mi North 5.8 mph - N/A   Scattered Clouds
4:54 PM 72.9 °F 68.0 °F 85% 29.91 in 10.0 mi North 5.8 mph - N/A   Clear
5:14 PM 74.5 °F 68.7 °F 82% 29.89 in 10.0 mi Calm Calm - N/A   Clear
5:34 PM 76.1 °F 69.1 °F 79% 29.89 in 10.0 mi Calm Calm - N/A   Clear
5:54 PM 73.6 °F 67.8 °F 82% 29.89 in 10.0 mi NNW 4.6 mph - N/A   Clear
6:14 PM 73.8 °F 68.4 °F 83% 29.88 in 10.0 mi NNW 4.6 mph - N/A   Clear
6:34 PM 73.4 °F 68.0 °F 83% 29.87 in 10.0 mi North 4.6 mph - N/A   Clear
6:54 PM 72.0 °F 67.8 °F 87% 29.87 in 10.0 mi WNW 8.1 mph - N/A   Scattered Clouds
7:14 PM 72.0 °F 68.9 °F 90% 29.86 in 10.0 mi West 5.8 mph - N/A   Scattered Clouds
7:35 PM 70.9 °F 68.0 °F 91% 29.86 in 10.0 mi West 6.9 mph - N/A   Mostly Cloudy
7:54 PM 69.3 °F 68.0 °F 96% 29.85 in 7.0 mi West 4.6 mph - N/A Rain Light Rain
8:14 PM 68.9 °F 68.0 °F 97% 29.85 in 4.0 mi SSE 3.5 mph - N/A Rain Rain
8:35 PM 68.9 °F 68.4 °F 98% 29.84 in 5.0 mi Calm Calm - N/A Rain Light Rain
8:54 PM 68.9 °F 68.4 °F 98% 29.82 in 4.0 mi Calm Calm - N/A Rain Light Rain
9:14 PM 68.4 °F 68.4 °F 100% 29.81 in 3.0 mi Calm Calm - N/A   Overcast
9:35 PM 68.9 °F 68.9 °F 100% 29.81 in 3.0 mi Calm Calm - N/A   Scattered Clouds
9:54 PM 68.9 °F 68.9 °F 100% 29.81 in 2.0 mi Calm Calm - N/A   Scattered Clouds
10:14 PM 69.3 °F 69.3 °F 100% 29.80 in 5.0 mi ESE 4.6 mph - N/A   Scattered Clouds
10:34 PM 69.4 °F 69.4 °F 100% 29.80 in 7.0 mi ESE 3.5 mph - N/A   Clear
10:54 PM 69.8 °F 69.4 °F 99% 29.80 in 7.0 mi Calm Calm - N/A   Mostly Cloudy
11:14 PM 69.4 °F 69.4 °F 100% 29.80 in 7.0 mi SSE 4.6 mph - N/A   Overcast
11:34 PM 69.8 °F 69.8 °F 100% 29.78 in 7.0 mi Calm Calm - N/A Rain Light Rain
11:54 PM 70.5 °F 70.2 °F 99% 29.76 in 7.0 mi SE 3.5 mph - N/A Rain Light Rain